Home   Weather   Linden   Past weeks

Flag for Guyana Past Weather in Linden, Guyana — Yesterday and Last 2 Weeks

Now
73 °F

Mostly cloudy.


Feels Like: 68 °F
Forecast: 73 / 84 °F
Wind: No wind

Location: Georgetown/Cheddi Jagan International Airport

Current Time: Apr 29, 2017 at 5:49:12 am

Latest Report: Apr 29, 2017 at 5:00 am


Visibility: N/A

Pressure: 29.92 "Hg

Humidity: 100%

Dew Point: 73 °F

Location of LindenLocation

Past Weather in Linden — Graph

°F

Linden Temperature Yesterday

Maximum temperature yesterday: 82 °F (at 9:00 am)
Minimum temperature yesterday: 73 °F (at 7:00 pm)
Average temperature yesterday: 76 °F

High & Low Weather Summary for the Past Weeks

 TemperatureHumidityPressure
High91 °F (Apr 20, 1:00 pm)100% (Apr 14, 6:00 am)29.98 "Hg (Apr 14, 6:00 am)
Low70 °F (Apr 21, 3:00 am)46% (Apr 21, 1:00 pm)29.80 "Hg (Apr 14, 4:00 pm)
Average80 °F82%29.89 "Hg
* Reported Apr 14 4:00 am — Apr 29 4:00 am, Linden, Weather by CustomWeather, © 2017

Note: Actual official high and low records may vary slightly from our data, if they occured in-between our weather recording intervals... More about our weather records

Advertising

Linden Weather History for the Previous 24 Hours

Scroll right to see more
 ConditionsComfort  
Time TempWeatherWind HumidityBarometerVisibility
4:00 am
Sat, Apr 29
73 °FLight rain. Mostly cloudy.No wind100%29.89 "HgN/A
2:00 am75 °FLight rain. Mostly cloudy.2 mph94%29.92 "Hg5 mi
12:00 am73 °FRain. Mostly cloudy.2 mph100%29.95 "Hg4 mi
11:00 pm
Fri, Apr 28
73 °FLight rain. Mostly cloudy.No wind100%29.95 "HgN/A
10:00 pm73 °FLight rain. Mostly cloudy.2 mph100%29.98 "HgN/A
9:00 pm73 °FLight rain. Mostly cloudy.5 mph100%29.95 "Hg5 mi
8:00 pm73 °FLight rain. Mostly cloudy.5 mph100%29.95 "Hg5 mi
7:00 pm73 °FLight rain. Mostly cloudy.12 mph100%29.92 "Hg5 mi
6:00 pm75 °FLots of rain. Partly cloudy.18 mph94%29.89 "Hg2 mi
5:00 pm79 °FSprinkles. Partly sunny.5 mph94%29.86 "Hg5 mi
4:00 pm77 °FBroken clouds.5 mph100%29.86 "HgN/A
3:00 pm77 °FMore clouds than sun.5 mph94%29.86 "Hg6 mi
2:00 pm77 °FThunderstorms. Broken clouds.12 mph94%29.89 "Hg5 mi
1:00 pm81 °FPartly sunny.2 mph89%29.89 "Hg6 mi
12:00 pm77 °FRain. Mostly cloudy.5 mph94%29.92 "Hg4 mi
11:00 am77 °FLight rain. Partly sunny.12 mph94%29.95 "Hg5 mi
10:00 am75 °FThunderstorms. Partly sunny.2 mph100%29.95 "Hg4 mi
9:40 am77 °FThunderstorms. Partly sunny.5 mph94%29.95 "Hg4 mi
9:00 am82 °FLots of rain. Partly sunny.7 mph84%29.95 "Hg4 mi
8:00 am81 °FPartly sunny.7 mph89%29.92 "HgN/A
7:00 am77 °FBroken clouds.2 mph100%29.92 "HgN/A
6:00 am75 °FBroken clouds.2 mph100%29.92 "HgN/A
5:00 am75 °FPassing clouds.2 mph100%29.89 "HgN/A
Weather by CustomWeather, © 2017

See weather overviewHow to use our weather pages